Location: Unspecified
(52.8490°N, 0.0000°E)
Time: 05:23:11
(UTC+00:00)

NOAA 15 - Visible Passes

Search period start: 04 April 2026 00:00
Search period end: 14 April 2026 00:00
Orbit: 795 x 808 km, 98.5° (Epoch: 29 March)

Date Brightness Start Highest point End Pass type
(mag) Time Alt. Az. Time Alt. Az. Time Alt. Az.
5 Apr 7.8 20:10:34 10° WSW 20:12:22 12° W 20:14:11 10° WNW visible
6 Apr 7.4 19:42:02 10° SW 19:45:43 19° W 19:49:24 10° NW visible
7 Apr 6.8 19:14:35 10° SSW 19:19:09 29° W 19:23:45 10° NNW visible
9 Apr 7.7 20:04:44 10° WSW 20:07:03 13° W 20:09:23 10° WNW visible
10 Apr 7.3 19:36:31 10° SW 19:40:25 20° W 19:44:19 10° NW visible
13 Apr 7.6 19:59:00 10° WSW 20:01:44 14° W 20:04:28 10° NW visible
